Nashville, TN

7:09 AM CDT on September 18, 2019 (GMT -0500)
Nashville International

Weather History for KBNA - May, 2019

Change the Weather History Date:

Wednesday, May 8, 2019

  Actual Average Record
Temperature  
Mean Temperature 75 °F 65 °F  
Max Temperature 89 °F 76 °F 90 °F (1952)
Min Temperature 60 °F 55 °F 36 °F (1947)
Degree Days  
Heating Degree Days 0    
Month to date heating degree days 3  
Since 1 July heating degree days 3196  
Cooling Degree Days 10    
Month to date cooling degree days 44  
Year to date cooling degree days 103  
Growing Degree Days 24 (Base 50)    
Moisture  
Dew Point 58 °F    
Average Humidity 56    
Maximum Humidity 84    
Minimum Humidity 34    
Precipitation  
Precipitation 0.00 in 0.19 in 1.68 in (1978)
Month to date precipitation 0.69 1.51  
Year to date precipitation 28.57 17.31  
Sea Level Pressure  
Sea Level Pressure 29.96 in    
Wind  
Wind Speed 9 mph (SSE)    
Max Wind Speed 22 mph    
Max Gust Speed 27 mph    
Visibility 10 miles    
Events      
T = Trace of Precipitation, MM = Missing Value Source: NWS Daily Summary

Daily Weather History Graph

Daily Weather History Graph

Search for Another Location

Airport or City:

Astronomy

May. 08, 2019 Rise Set
Actual Time 5:47 AM CDT 7:39 PM CDT
Civil Twilight 5:18 AM CDT 8:08 PM CDT
Nautical Twilight 4:45 AM CDT 8:42 PM CDT
Astronomical Twilight 4:08 AM CDT 9:18 PM CDT
Moon 8:46 AM CDT (5/8) 11:36 PM CDT (5/8)
Length of Visible Light 14h 49m
Length of Day
13h 52m
Waxing Crescent, 16% of the Moon is Illuminated
May 8
Waxing Crescent
May 11
First Quarter
May 18
Full
May 26
Last Quarter
Jun 3
New

Hourly Weather History & Observations

Time (CDT) Temp. Heat Index Dew Point Humidity Pressure Visibility Wind Dir Wind Speed Gust Speed Precip Events Conditions
12:53 AM 66.0 °F - 57.0 °F 73% 30.05 in 10.0 mi Calm Calm - N/A   Clear
1:53 AM 64.0 °F - 57.0 °F 78% 30.03 in 10.0 mi Calm Calm - N/A   Clear
2:53 AM 64.0 °F - 57.0 °F 78% 30.02 in 10.0 mi Calm Calm - N/A   Clear
3:53 AM 63.0 °F - 57.0 °F 81% 30.01 in 10.0 mi Calm Calm - N/A   Clear
4:53 AM 62.1 °F - 57.0 °F 84% 30.03 in 10.0 mi Calm Calm - N/A   Partly Cloudy
5:53 AM 62.1 °F - 57.0 °F 84% 30.04 in 10.0 mi East 3.5 mph - N/A   Partly Cloudy
6:53 AM 64.9 °F - 57.9 °F 78% 30.04 in 10.0 mi Calm Calm - N/A   Mostly Cloudy
7:53 AM 68.0 °F - 57.9 °F 70% 30.04 in 10.0 mi SE 3.5 mph - N/A   Mostly Cloudy
8:53 AM 72.0 °F - 59.0 °F 64% 30.03 in 10.0 mi SE 5.8 mph - N/A   Overcast
9:53 AM 77.0 °F - 61.0 °F 58% 30.02 in 10.0 mi South 10.4 mph - N/A   Overcast
10:53 AM 81.0 °F 81.9 °F 62.1 °F 52% 30.00 in 10.0 mi South 9.2 mph - N/A   Mostly Cloudy
11:53 AM 84.0 °F 83.8 °F 59.0 °F 43% 29.98 in 10.0 mi South 16.1 mph - N/A   Overcast
12:53 PM 86.0 °F 85.4 °F 59.0 °F 40% 29.95 in 10.0 mi South 16.1 mph 27.6 mph N/A   Mostly Cloudy
1:53 PM 88.0 °F 86.9 °F 57.9 °F 36% 29.94 in 10.0 mi South 13.8 mph - N/A   Scattered Clouds
2:53 PM 88.0 °F 86.7 °F 57.0 °F 35% 29.91 in 10.0 mi South 16.1 mph 25.3 mph N/A   Scattered Clouds
3:53 PM 88.0 °F 86.9 °F 57.9 °F 36% 29.90 in 10.0 mi South 11.5 mph - N/A   Scattered Clouds
4:53 PM 88.0 °F 86.5 °F 55.9 °F 34% 29.89 in 10.0 mi South 16.1 mph 23.0 mph N/A   Scattered Clouds
5:53 PM 86.0 °F 84.7 °F 55.9 °F 36% 29.88 in 10.0 mi South 16.1 mph 24.2 mph N/A   Scattered Clouds
6:53 PM 82.9 °F 82.6 °F 57.9 °F 42% 29.86 in 10.0 mi South 11.5 mph - N/A   Scattered Clouds
7:53 PM 80.1 °F 80.7 °F 59.0 °F 48% 29.88 in 10.0 mi South 9.2 mph - N/A   Scattered Clouds
8:53 PM 77.0 °F - 59.0 °F 54% 29.88 in 10.0 mi South 9.2 mph - N/A   Partly Cloudy
9:53 PM 75.9 °F - 59.0 °F 56% 29.88 in 10.0 mi SSE 9.2 mph - N/A   Partly Cloudy
10:53 PM 75.0 °F - 59.0 °F 57% 29.88 in 10.0 mi SSE 10.4 mph - N/A   Partly Cloudy
11:53 PM 75.0 °F - 60.1 °F 60% 29.88 in 10.0 mi SSE 12.7 mph - N/A   Clear